SBI5238 UHHH-UNNT

Flight info

Callsign SBI5238
Flight time 4h 49m
Altitude 34000
Route K0850F340 DIDEK N992 GU G363 BRT B151 KOTIB W174 TISBU W176 ROVNO B151 KESED B926 NATIR
Aircraft A321/M-SDE3FGHIRWY/LB1

Departure

Time 2026-05-07 08:50
Airport Khabarovsk Novy Airport (UHHH)

Arrival

Time 2026-05-07 13:39
Airport Novosibirsk Tolmachevo Airport (UNNT)
Time Latitude Longitude Altitude Speed Heading
2026-05-07 07:47 48.52625 135.17359 235 ft 0 kts 312°
2026-05-07 07:50 48.52625 135.17360 235 ft 0 kts 312°
2026-05-07 07:52 48.52624 135.17360 235 ft 0 kts 312°
2026-05-07 08:18 48.52624 135.17361 235 ft 0 kts 312°
2026-05-07 08:33 48.52623 135.17362 235 ft 2 kts 312°
2026-05-07 08:33 48.52607 135.17390 237 ft 4 kts 313°
2026-05-07 08:34 48.52588 135.17418 239 ft 4 kts 319°
2026-05-07 08:34 48.52566 135.17443 238 ft 4 kts 325°
2026-05-07 08:34 48.52557 135.17453 237 ft 1 kts 325°
2026-05-07 08:35 48.52544 135.17461 239 ft 2 kts 25°
2026-05-07 08:35 48.52532 135.17444 238 ft 2 kts 68°
2026-05-07 08:35 48.52527 135.17420 239 ft 2 kts 101°
2026-05-07 08:36 48.52532 135.17396 238 ft 2 kts 67°
2026-05-07 08:36 48.52529 135.17387 238 ft 0 kts 44°
2026-05-07 08:38 48.52539 135.17401 236 ft 4 kts 44°
2026-05-07 08:39 48.52573 135.17451 236 ft 9 kts 40°
2026-05-07 08:39 48.52619 135.17510 235 ft 8 kts 42°
2026-05-07 08:39 48.52660 135.17562 236 ft 8 kts 30°
2026-05-07 08:39 48.52711 135.17554 236 ft 8 kts 323°
2026-05-07 08:40 48.52761 135.17524 236 ft 8 kts
2026-05-07 08:40 48.52807 135.17573 235 ft 8 kts 40°
2026-05-07 08:40 48.52853 135.17634 236 ft 9 kts 42°
2026-05-07 08:40 48.52900 135.17698 236 ft 9 kts 42°
2026-05-07 08:41 48.52918 135.17723 235 ft 2 kts 46°
2026-05-07 08:41 48.52929 135.17746 236 ft 4 kts 56°
2026-05-07 08:41 48.52927 135.17802 235 ft 7 kts 114°
2026-05-07 08:41 48.52886 135.17876 236 ft 12 kts 133°
2026-05-07 08:42 48.52836 135.17960 236 ft 10 kts 132°
2026-05-07 08:42 48.52783 135.18056 235 ft 13 kts 112°
2026-05-07 08:42 48.52832 135.18167 236 ft 15 kts 43°
2026-05-07 08:42 48.52909 135.18271 237 ft 15 kts 42°
2026-05-07 08:43 48.52986 135.18376 236 ft 12 kts 41°
2026-05-07 08:43 48.53040 135.18451 237 ft 9 kts 42°
2026-05-07 08:43 48.53053 135.18536 235 ft 8 kts 101°
2026-05-07 08:43 48.53021 135.18603 236 ft 6 kts 131°
2026-05-07 08:44 48.53020 135.18604 236 ft 0 kts 131°
2026-05-07 08:44 48.53015 135.18613 235 ft 3 kts 131°
2026-05-07 08:45 48.52989 135.18657 234 ft 8 kts 131°
2026-05-07 08:45 48.52962 135.18758 233 ft 13 kts 80°
2026-05-07 08:45 48.53034 135.18876 232 ft 18 kts 43°
2026-05-07 08:45 48.53139 135.19018 235 ft 21 kts 42°
2026-05-07 08:46 48.53249 135.19169 233 ft 21 kts 42°
2026-05-07 08:46 48.53358 135.19317 236 ft 21 kts 42°
2026-05-07 08:46 48.53470 135.19468 235 ft 22 kts 43°
2026-05-07 08:46 48.53586 135.19627 234 ft 23 kts 41°
2026-05-07 08:47 48.53703 135.19785 234 ft 22 kts 41°
2026-05-07 08:47 48.53816 135.19941 235 ft 21 kts 42°
2026-05-07 08:47 48.53916 135.20053 234 ft 11 kts
2026-05-07 08:47 48.53972 135.20096 235 ft 8 kts 72°
2026-05-07 08:48 48.53952 135.20127 234 ft 4 kts 214°
2026-05-07 08:48 48.53936 135.20107 235 ft 0 kts 221°
2026-05-07 08:48 48.53936 135.20106 235 ft 0 kts 221°
2026-05-07 08:48 48.53935 135.20105 235 ft 0 kts 221°
2026-05-07 08:49 48.53916 135.20080 233 ft 12 kts 221°
2026-05-07 08:49 48.53671 135.19746 232 ft 89 kts 222°
2026-05-07 08:49 48.53022 135.18860 234 ft 157 kts 222°
2026-05-07 08:49 48.52104 135.17605 506 ft 185 kts 223°
2026-05-07 08:50 48.51163 135.16300 1419 ft 184 kts 223°
2026-05-07 08:50 48.50229 135.15022 2225 ft 184 kts 224°
2026-05-07 08:50 48.49233 135.13657 2395 ft 203 kts 224°
2026-05-07 08:50 48.48172 135.12179 2710 ft 212 kts 225°
2026-05-07 08:51 48.47051 135.10641 2987 ft 224 kts 224°
2026-05-07 08:51 48.45827 135.08998 3215 ft 243 kts 224°
2026-05-07 08:51 48.44533 135.07261 3523 ft 259 kts 224°
2026-05-07 08:51 48.43188 135.05421 4192 ft 262 kts 230°
2026-05-07 08:52 48.42387 135.03031 4886 ft 259 kts 264°
2026-05-07 08:52 48.42642 135.00394 5540 ft 258 kts 297°
2026-05-07 08:52 48.43713 134.98233 6212 ft 261 kts 314°
2026-05-07 08:52 48.45033 134.96353 6885 ft 262 kts 317°
2026-05-07 08:53 48.46418 134.94554 7509 ft 266 kts 319°
2026-05-07 08:53 48.47826 134.92747 8183 ft 267 kts 317°
2026-05-07 08:53 48.48765 134.91480 8620 ft 269 kts 316°
2026-05-07 08:53 48.50132 134.89543 9284 ft 271 kts 315°
2026-05-07 08:54 48.51474 134.87537 9903 ft 273 kts 314°
2026-05-07 08:54 48.52821 134.85444 10208 ft 287 kts 313°
2026-05-07 08:54 48.54239 134.83178 10344 ft 306 kts 312°
2026-05-07 08:54 48.55738 134.80764 10475 ft 324 kts 312°
2026-05-07 08:55 48.57321 134.78215 10615 ft 341 kts 313°
2026-05-07 08:55 48.58965 134.75576 10999 ft 348 kts 313°
2026-05-07 08:55 48.60637 134.72899 11544 ft 351 kts 313°
2026-05-07 08:55 48.62325 134.70204 12114 ft 354 kts 313°
2026-05-07 08:56 48.64019 134.67499 12682 ft 356 kts 313°
2026-05-07 08:56 48.65726 134.64775 13241 ft 358 kts 313°
2026-05-07 08:56 48.67442 134.62040 13761 ft 360 kts 313°
2026-05-07 08:56 48.69167 134.59285 14225 ft 362 kts 313°
2026-05-07 08:57 48.70902 134.56504 14708 ft 364 kts 313°
2026-05-07 08:57 48.72647 134.53702 15164 ft 367 kts 313°
2026-05-07 08:57 48.74401 134.50882 15608 ft 369 kts 313°
2026-05-07 08:57 48.76163 134.48043 16023 ft 371 kts 312°
2026-05-07 08:58 48.77935 134.45185 16444 ft 373 kts 312°
2026-05-07 08:58 48.79695 134.42346 16836 ft 375 kts 312°
2026-05-07 08:58 48.81488 134.39457 17244 ft 377 kts 312°
2026-05-07 08:58 48.83313 134.36513 17647 ft 379 kts 312°
2026-05-07 08:59 48.85126 134.33582 18044 ft 382 kts 312°
2026-05-07 08:59 48.86946 134.30638 18394 ft 384 kts 312°
2026-05-07 08:59 48.88778 134.27673 18729 ft 386 kts 312°
2026-05-07 08:59 48.90580 134.24643 19067 ft 387 kts 307°
2026-05-07 09:00 48.92081 134.21244 19409 ft 388 kts 300°
2026-05-07 09:00 48.93444 134.17754 19750 ft 390 kts 300°
2026-05-07 09:00 48.94839 134.14194 20089 ft 393 kts 300°
2026-05-07 09:00 48.96245 134.10615 20432 ft 395 kts 300°
2026-05-07 09:01 48.97662 134.07017 20776 ft 398 kts 300°
2026-05-07 09:01 48.99108 134.03341 21133 ft 400 kts 300°
2026-05-07 09:01 49.00540 133.99698 21480 ft 403 kts 300°
2026-05-07 09:01 49.01980 133.96024 21825 ft 405 kts 300°
2026-05-07 09:02 49.03428 133.92325 22169 ft 408 kts 300°
2026-05-07 09:02 49.04880 133.88604 22505 ft 410 kts 300°
2026-05-07 09:02 49.06342 133.84850 22834 ft 412 kts 300°
2026-05-07 09:02 49.07788 133.81127 23152 ft 415 kts 300°
2026-05-07 09:03 49.09258 133.77333 23454 ft 417 kts 300°
2026-05-07 09:03 49.10759 133.73462 23729 ft 419 kts 300°
2026-05-07 09:03 49.12244 133.69631 24010 ft 421 kts 300°
2026-05-07 09:03 49.13736 133.65780 24289 ft 422 kts 300°
2026-05-07 09:04 49.15211 133.61965 24567 ft 423 kts 300°
2026-05-07 09:04 49.16730 133.58034 24854 ft 425 kts 299°
2026-05-07 09:04 49.18233 133.54136 25126 ft 426 kts 299°
2026-05-07 09:04 49.19715 133.50276 25396 ft 428 kts 299°
2026-05-07 09:05 49.21274 133.46393 25650 ft 430 kts 304°
2026-05-07 09:05 49.23181 133.42852 25893 ft 433 kts 313°
2026-05-07 09:05 49.25331 133.39601 26135 ft 435 kts 314°
2026-05-07 09:05 49.27491 133.36346 26373 ft 437 kts 314°
2026-05-07 09:06 49.29658 133.33073 26594 ft 438 kts 314°
2026-05-07 09:06 49.31831 133.29783 26811 ft 440 kts 314°
2026-05-07 09:06 49.34040 133.26433 27011 ft 441 kts 314°
2026-05-07 09:06 49.36192 133.23157 27209 ft 443 kts 313°
2026-05-07 09:07 49.38379 133.19819 27391 ft 444 kts 313°
2026-05-07 09:07 49.40571 133.16465 27591 ft 445 kts 313°
2026-05-07 09:07 49.42758 133.13110 27849 ft 444 kts 313°
2026-05-07 09:07 49.44941 133.09760 28098 ft 444 kts 313°
2026-05-07 09:08 49.47128 133.06409 28340 ft 444 kts 313°
2026-05-07 09:08 49.49313 133.03058 28568 ft 444 kts 313°
2026-05-07 09:08 49.51494 132.99702 28801 ft 443 kts 313°
2026-05-07 09:08 49.53673 132.96340 29027 ft 443 kts 313°
2026-05-07 09:09 49.55851 132.92975 29254 ft 443 kts 313°
2026-05-07 09:09 49.58024 132.89617 29490 ft 443 kts 313°
2026-05-07 09:09 49.60193 132.86254 29727 ft 442 kts 313°
2026-05-07 09:09 49.62360 132.82888 29944 ft 442 kts 313°
2026-05-07 09:10 49.64524 132.79529 30123 ft 442 kts 313°
2026-05-07 09:10 49.66689 132.76169 30291 ft 442 kts 313°
2026-05-07 09:10 49.68862 132.72796 30451 ft 442 kts 313°
2026-05-07 09:10 49.71026 132.69426 30623 ft 442 kts 313°
2026-05-07 09:11 49.73190 132.66044 30793 ft 442 kts 313°
2026-05-07 09:11 49.75351 132.62658 30973 ft 443 kts 313°
2026-05-07 09:11 49.77513 132.59264 31145 ft 442 kts 313°
2026-05-07 09:11 49.79670 132.55877 31302 ft 443 kts 313°
2026-05-07 09:12 49.81836 132.52482 31474 ft 442 kts 313°
2026-05-07 09:12 49.84002 132.49087 31641 ft 442 kts 313°
2026-05-07 09:12 49.86162 132.45697 31809 ft 442 kts 313°
2026-05-07 09:12 49.88321 132.42300 31966 ft 442 kts 313°
2026-05-07 09:13 49.90477 132.38896 32138 ft 442 kts 313°
2026-05-07 09:13 49.92628 132.35493 32292 ft 442 kts 312°
2026-05-07 09:13 49.94782 132.32082 32465 ft 442 kts 313°
2026-05-07 09:13 49.96932 132.28673 32608 ft 442 kts 313°
2026-05-07 09:14 49.99083 132.25262 32761 ft 442 kts 313°
2026-05-07 09:14 50.01235 132.21844 32916 ft 442 kts 312°
2026-05-07 09:14 50.03383 132.18427 33063 ft 442 kts 312°
2026-05-07 09:14 50.05530 132.15002 33218 ft 442 kts 312°
2026-05-07 09:15 50.07663 132.11566 33354 ft 442 kts 312°
2026-05-07 09:15 50.09791 132.08124 33500 ft 441 kts 312°
2026-05-07 09:15 50.11920 132.04679 33644 ft 441 kts 312°
2026-05-07 09:15 50.14047 132.01235 33803 ft 441 kts 312°
2026-05-07 09:16 50.18292 131.94346 33845 ft 440 kts 312°
2026-05-07 09:16 50.22534 131.87452 33844 ft 440 kts 312°
2026-05-07 09:17 50.26772 131.80542 33848 ft 440 kts 312°
2026-05-07 09:17 50.31006 131.73628 33841 ft 440 kts 312°
2026-05-07 09:18 50.35240 131.66699 33849 ft 440 kts 312°
2026-05-07 09:18 50.39460 131.59751 33864 ft 440 kts 312°
2026-05-07 09:19 50.43682 131.52777 33863 ft 441 kts 312°
2026-05-07 09:19 50.47904 131.45808 33867 ft 441 kts 312°
2026-05-07 09:20 50.52124 131.38815 33870 ft 441 kts 312°
2026-05-07 09:20 50.56338 131.31804 33867 ft 441 kts 312°
2026-05-07 09:21 50.60546 131.24787 33863 ft 441 kts 312°
2026-05-07 09:21 50.64744 131.17767 33880 ft 440 kts 312°
2026-05-07 09:22 50.68946 131.10730 33884 ft 440 kts 312°
2026-05-07 09:22 50.73128 131.03687 33880 ft 440 kts 312°
2026-05-07 09:23 50.77314 130.96637 33884 ft 440 kts 312°
2026-05-07 09:23 50.80958 130.90482 33890 ft 439 kts 312°
2026-05-07 09:24 50.85126 130.83408 33889 ft 439 kts 312°
2026-05-07 09:24 50.89286 130.76339 33889 ft 439 kts 312°
2026-05-07 09:25 50.93446 130.69261 33891 ft 439 kts 312°
2026-05-07 09:25 50.97598 130.62160 33879 ft 439 kts 312°
2026-05-07 09:26 51.01742 130.55038 33884 ft 439 kts 312°
2026-05-07 09:26 51.05884 130.47903 33889 ft 439 kts 312°
2026-05-07 09:27 51.10027 130.40757 33889 ft 439 kts 312°
2026-05-07 09:28 51.16239 130.30021 33883 ft 440 kts 312°
2026-05-07 09:28 51.20374 130.22835 33884 ft 440 kts 312°
2026-05-07 09:29 51.24500 130.15641 33884 ft 439 kts 312°
2026-05-07 09:29 51.28621 130.08427 33882 ft 439 kts 312°
2026-05-07 09:30 51.32740 130.01212 33884 ft 440 kts 313°
2026-05-07 09:30 51.36828 129.93929 33882 ft 440 kts 312°
2026-05-07 09:31 51.40868 129.86575 33881 ft 440 kts 311°
2026-05-07 09:31 51.44894 129.79201 33883 ft 440 kts 312°
2026-05-07 09:32 51.48941 129.71815 33884 ft 441 kts 312°
2026-05-07 09:32 51.52989 129.64410 33894 ft 441 kts 312°
2026-05-07 09:33 51.57035 129.56996 33887 ft 441 kts 312°
2026-05-07 09:33 51.61077 129.49566 33898 ft 442 kts 312°
2026-05-07 09:34 51.64430 129.43371 33892 ft 442 kts 312°
2026-05-07 09:34 51.68461 129.35900 33889 ft 442 kts 312°
2026-05-07 09:35 51.72490 129.28420 33891 ft 442 kts 312°
2026-05-07 09:35 51.76509 129.20937 33888 ft 441 kts 312°
2026-05-07 09:36 51.80526 129.13424 33887 ft 441 kts 312°
2026-05-07 09:36 51.84540 129.05920 33888 ft 441 kts 312°
2026-05-07 09:37 51.88551 128.98406 33889 ft 441 kts 312°
2026-05-07 09:37 51.92552 128.90868 33896 ft 441 kts 312°
2026-05-07 09:38 51.96545 128.83302 33899 ft 441 kts 312°
2026-05-07 09:38 52.00542 128.75742 33897 ft 441 kts 312°
2026-05-07 09:39 52.04532 128.68171 33909 ft 441 kts 312°
2026-05-07 09:39 52.08509 128.60576 33911 ft 441 kts 312°
2026-05-07 09:40 52.12481 128.52963 33913 ft 441 kts 312°
2026-05-07 09:40 52.16452 128.45349 33916 ft 441 kts 312°
2026-05-07 09:41 52.20420 128.37740 33920 ft 441 kts 312°
2026-05-07 09:41 52.24380 128.30106 33920 ft 441 kts 312°
2026-05-07 09:42 52.28324 128.22454 33921 ft 440 kts 312°
2026-05-07 09:42 52.32269 128.14789 33917 ft 440 kts 312°
2026-05-07 09:43 52.36203 128.07131 33916 ft 440 kts 312°
2026-05-07 09:43 52.40135 127.99460 33918 ft 440 kts 312°
2026-05-07 09:44 52.44059 127.91773 33917 ft 439 kts 312°
2026-05-07 09:44 52.47972 127.84081 33921 ft 439 kts 312°
2026-05-07 09:45 52.51879 127.76383 33918 ft 439 kts 312°
2026-05-07 09:45 52.55769 127.68674 33919 ft 438 kts 312°
2026-05-07 09:46 52.59654 127.60966 33918 ft 438 kts 312°
2026-05-07 09:46 52.63535 127.53251 33918 ft 438 kts 312°
2026-05-07 09:47 52.67411 127.45522 33923 ft 437 kts 312°
2026-05-07 09:47 52.71266 127.37767 33926 ft 437 kts 312°
2026-05-07 09:48 52.75102 127.29983 33922 ft 437 kts 312°
2026-05-07 09:48 52.78933 127.22187 33925 ft 437 kts 312°
2026-05-07 09:49 52.82756 127.14392 33926 ft 437 kts 311°
2026-05-07 09:49 52.86575 127.06584 33928 ft 436 kts 312°
2026-05-07 09:50 52.90391 126.98771 33929 ft 436 kts 312°
2026-05-07 09:50 52.94197 126.90945 33926 ft 436 kts 311°
2026-05-07 09:51 52.97996 126.83110 33925 ft 436 kts 311°
2026-05-07 09:51 53.01785 126.75268 33924 ft 435 kts 311°
2026-05-07 09:52 53.05568 126.67406 33922 ft 435 kts 311°
2026-05-07 09:52 53.09343 126.59538 33923 ft 435 kts 311°
2026-05-07 09:53 53.13112 126.51676 33926 ft 435 kts 311°
2026-05-07 09:53 53.16874 126.43802 33923 ft 434 kts 311°
2026-05-07 09:54 53.20605 126.35949 33920 ft 434 kts 311°
2026-05-07 09:54 53.24371 126.27994 33927 ft 434 kts 311°
2026-05-07 09:55 53.28086 126.20139 33920 ft 434 kts 311°
2026-05-07 09:55 53.31824 126.12227 33927 ft 434 kts 311°
2026-05-07 09:56 53.35545 126.04288 33938 ft 433 kts 311°
2026-05-07 09:56 53.39257 125.96338 33936 ft 433 kts 311°
2026-05-07 09:57 53.42969 125.88375 33933 ft 433 kts 311°
2026-05-07 09:57 53.46646 125.80281 33937 ft 435 kts 306°
2026-05-07 09:58 53.49384 125.71174 33932 ft 438 kts 298°
2026-05-07 09:58 53.51923 125.61879 33933 ft 438 kts 298°
2026-05-07 09:59 53.54459 125.52575 33945 ft 438 kts 298°
2026-05-07 09:59 53.56989 125.43272 33945 ft 437 kts 298°
2026-05-07 10:00 53.59506 125.33954 33937 ft 437 kts 298°
2026-05-07 10:00 53.62008 125.24635 33939 ft 437 kts 298°
2026-05-07 10:01 53.64489 125.15374 33942 ft 436 kts 298°
2026-05-07 10:01 53.66995 125.05988 33932 ft 436 kts 297°
2026-05-07 10:02 53.69462 124.96716 33943 ft 436 kts 297°
2026-05-07 10:02 53.71958 124.87317 33940 ft 436 kts 297°
2026-05-07 10:03 53.74412 124.78018 33942 ft 436 kts 297°
2026-05-07 10:03 53.76874 124.68659 33943 ft 436 kts 297°
2026-05-07 10:04 53.79327 124.59280 33944 ft 436 kts 297°
2026-05-07 10:04 53.81774 124.49881 33946 ft 436 kts 297°
2026-05-07 10:05 53.84212 124.40483 33959 ft 436 kts 297°
2026-05-07 10:05 53.86633 124.31074 33958 ft 436 kts 297°
2026-05-07 10:06 53.89057 124.21652 33962 ft 436 kts 297°
2026-05-07 10:06 53.91479 124.12211 33965 ft 436 kts 297°
2026-05-07 10:07 53.93883 124.02758 33968 ft 436 kts 297°
2026-05-07 10:07 53.96284 123.93297 33967 ft 436 kts 297°
2026-05-07 10:08 53.98677 123.83822 33974 ft 436 kts 296°
2026-05-07 10:08 54.01065 123.74344 33976 ft 436 kts 296°
2026-05-07 10:09 54.03447 123.64862 33973 ft 436 kts 296°
2026-05-07 10:09 54.05815 123.55366 33971 ft 436 kts 296°
2026-05-07 10:10 54.08182 123.45856 33972 ft 436 kts 296°
2026-05-07 10:10 54.10535 123.36333 33969 ft 436 kts 296°
2026-05-07 10:11 54.12875 123.26795 33966 ft 436 kts 296°
2026-05-07 10:11 54.15211 123.17248 33964 ft 436 kts 296°
2026-05-07 10:12 54.17546 123.07688 33967 ft 436 kts 296°
2026-05-07 10:12 54.19879 122.98118 33961 ft 436 kts 296°
2026-05-07 10:13 54.22204 122.88540 33968 ft 437 kts 295°
2026-05-07 10:13 54.24516 122.78937 33963 ft 437 kts 295°
2026-05-07 10:14 54.26819 122.69330 33967 ft 437 kts 295°
2026-05-07 10:14 54.29114 122.59708 33962 ft 437 kts 295°
2026-05-07 10:15 54.31402 122.50072 33963 ft 437 kts 295°
2026-05-07 10:15 54.33300 122.42053 33970 ft 437 kts 295°
2026-05-07 10:16 54.35584 122.32391 33973 ft 437 kts 295°
2026-05-07 10:16 54.37857 122.22717 33972 ft 437 kts 295°
2026-05-07 10:17 54.40118 122.13021 33978 ft 438 kts 295°
2026-05-07 10:17 54.42281 122.03234 33977 ft 439 kts 292°
2026-05-07 10:18 54.44149 121.93235 33982 ft 440 kts 290°
2026-05-07 10:18 54.45923 121.83170 33977 ft 440 kts 290°
2026-05-07 10:19 54.47750 121.73123 33977 ft 440 kts 290°
2026-05-07 10:19 54.49605 121.63076 33970 ft 441 kts 291°
2026-05-07 10:20 54.51459 121.53027 33973 ft 441 kts 290°
2026-05-07 10:20 54.53297 121.42947 33972 ft 441 kts 290°
2026-05-07 10:21 54.55120 121.32852 33972 ft 442 kts 290°
2026-05-07 10:21 54.56939 121.22745 33975 ft 442 kts 290°
2026-05-07 10:22 54.58759 121.12616 33974 ft 442 kts 290°
2026-05-07 10:22 54.60561 121.02483 33970 ft 442 kts 290°
2026-05-07 10:23 54.62358 120.92334 33969 ft 442 kts 290°
2026-05-07 10:23 54.64150 120.82172 33969 ft 443 kts 290°
2026-05-07 10:24 54.65931 120.71995 33966 ft 443 kts 290°
2026-05-07 10:24 54.67704 120.61796 33961 ft 443 kts 290°
2026-05-07 10:25 54.69468 120.51594 33962 ft 443 kts 290°
2026-05-07 10:25 54.71230 120.41380 33957 ft 443 kts 290°
2026-05-07 10:26 54.72977 120.31147 33961 ft 444 kts 289°
2026-05-07 10:26 54.74718 120.20903 33958 ft 444 kts 289°
2026-05-07 10:27 54.76447 120.10646 33962 ft 444 kts 289°
2026-05-07 10:27 54.78175 120.00380 33959 ft 444 kts 289°
2026-05-07 10:28 54.79902 119.90100 33957 ft 444 kts 289°
2026-05-07 10:28 54.81613 119.79809 33958 ft 444 kts 289°
2026-05-07 10:29 54.83316 119.69511 33958 ft 444 kts 289°
2026-05-07 10:29 54.85006 119.59194 33957 ft 445 kts 289°
2026-05-07 10:30 54.87539 119.43698 33957 ft 445 kts 289°
2026-05-07 10:30 54.89206 119.33354 33964 ft 445 kts 289°
2026-05-07 10:31 54.90866 119.23000 33956 ft 445 kts 289°
2026-05-07 10:31 54.92531 119.12642 33963 ft 445 kts 289°
2026-05-07 10:32 54.94195 119.02274 33958 ft 445 kts 289°
2026-05-07 10:32 54.95838 118.91887 33966 ft 445 kts 289°
2026-05-07 10:33 54.97467 118.81495 33965 ft 445 kts 289°
2026-05-07 10:33 54.99099 118.71096 33973 ft 445 kts 289°
2026-05-07 10:34 55.00723 118.60700 33970 ft 445 kts 289°
2026-05-07 10:34 55.02331 118.50281 33975 ft 445 kts 289°
2026-05-07 10:35 55.03931 118.39857 33986 ft 445 kts 289°
2026-05-07 10:35 55.05522 118.29425 33985 ft 445 kts 288°
2026-05-07 10:36 55.07101 118.18987 33980 ft 445 kts 288°
2026-05-07 10:36 55.08677 118.08540 33984 ft 445 kts 288°
2026-05-07 10:37 55.10245 117.98082 33979 ft 445 kts 288°
2026-05-07 10:37 55.11771 117.87609 33978 ft 445 kts 288°
2026-05-07 10:38 55.13271 117.77110 33978 ft 445 kts 288°
2026-05-07 10:38 55.14770 117.66610 33986 ft 445 kts 288°
2026-05-07 10:39 55.16264 117.56102 33981 ft 445 kts 288°
2026-05-07 10:39 55.17779 117.45600 33982 ft 445 kts 288°
2026-05-07 10:40 55.19310 117.35108 33977 ft 445 kts 288°
2026-05-07 10:40 55.20826 117.24595 33977 ft 445 kts 288°
2026-05-07 10:41 55.22315 117.14070 33977 ft 445 kts 288°
2026-05-07 10:41 55.23799 117.03540 33980 ft 445 kts 288°
2026-05-07 10:42 55.25289 116.93006 33974 ft 445 kts 288°
2026-05-07 10:42 55.26770 116.82462 33977 ft 445 kts 288°
2026-05-07 10:43 55.28236 116.71917 33982 ft 445 kts 287°
2026-05-07 10:43 55.29685 116.61352 33976 ft 445 kts 287°
2026-05-07 10:44 55.31126 116.50779 33978 ft 445 kts 287°
2026-05-07 10:44 55.32567 116.40206 33980 ft 445 kts 287°
2026-05-07 10:45 55.33991 116.29632 33976 ft 445 kts 287°
2026-05-07 10:45 55.35394 116.19042 33979 ft 445 kts 287°
2026-05-07 10:46 55.36784 116.08439 33972 ft 445 kts 287°
2026-05-07 10:46 55.38175 115.97839 33975 ft 445 kts 287°
2026-05-07 10:47 55.39557 115.87236 33983 ft 445 kts 287°
2026-05-07 10:47 55.40921 115.76628 33989 ft 444 kts 286°
2026-05-07 10:48 55.42280 115.66022 33979 ft 444 kts 286°
2026-05-07 10:48 55.43627 115.55415 33989 ft 443 kts 286°
2026-05-07 10:49 55.44963 115.44815 33983 ft 443 kts 286°
2026-05-07 10:49 55.46289 115.34208 33984 ft 443 kts 286°
2026-05-07 10:50 55.47605 115.23607 33994 ft 443 kts 286°
2026-05-07 10:50 55.48914 115.13001 33996 ft 442 kts 286°
2026-05-07 10:51 55.50206 115.02395 33999 ft 442 kts 286°
2026-05-07 10:51 55.51485 114.91786 34002 ft 442 kts 285°
2026-05-07 10:52 55.52762 114.81179 34001 ft 442 kts 286°
2026-05-07 10:52 55.54033 114.70568 34005 ft 442 kts 285°
2026-05-07 10:53 55.55284 114.60028 34005 ft 441 kts 285°
2026-05-07 10:53 55.56540 114.49349 34006 ft 441 kts 285°
2026-05-07 10:54 55.57781 114.38746 34008 ft 440 kts 285°
2026-05-07 10:54 55.59004 114.28137 34010 ft 440 kts 285°
2026-05-07 10:55 55.60212 114.17529 34009 ft 440 kts 285°
2026-05-07 10:55 55.61411 114.07003 34010 ft 439 kts 285°
2026-05-07 10:56 55.62609 113.96411 34009 ft 439 kts 285°
2026-05-07 10:56 55.63605 113.87537 34012 ft 438 kts 285°
2026-05-07 10:57 55.64776 113.76947 34006 ft 438 kts 285°
2026-05-07 10:57 55.65939 113.66376 34015 ft 437 kts 285°
2026-05-07 10:58 55.67099 113.55800 34006 ft 437 kts 285°
2026-05-07 10:58 55.68253 113.45233 34015 ft 437 kts 285°
2026-05-07 10:59 55.69383 113.34652 34012 ft 437 kts 284°
2026-05-07 10:59 55.70506 113.24084 34013 ft 436 kts 284°
2026-05-07 11:00 55.71626 113.13515 34012 ft 436 kts 284°
2026-05-07 11:00 55.72734 113.02950 34020 ft 435 kts 284°
2026-05-07 11:01 55.73828 112.92385 34011 ft 435 kts 284°
2026-05-07 11:01 55.74912 112.81820 34012 ft 435 kts 284°
2026-05-07 11:02 55.75993 112.71246 34008 ft 435 kts 284°
2026-05-07 11:02 55.77063 112.60672 34009 ft 435 kts 284°
2026-05-07 11:03 55.78117 112.50098 34007 ft 435 kts 284°
2026-05-07 11:03 55.79157 112.39578 34004 ft 435 kts 283°
2026-05-07 11:04 55.80198 112.28986 34010 ft 435 kts 283°
2026-05-07 11:04 55.81239 112.18317 34020 ft 435 kts 283°
2026-05-07 11:05 55.82259 112.07789 34012 ft 435 kts 283°
2026-05-07 11:05 55.83271 111.97190 34011 ft 435 kts 283°
2026-05-07 11:06 55.84270 111.86589 34012 ft 434 kts 283°
2026-05-07 11:06 55.85260 111.75990 33997 ft 434 kts 283°
2026-05-07 11:07 55.86245 111.65387 34010 ft 434 kts 283°
2026-05-07 11:07 55.87216 111.54777 34004 ft 434 kts 283°
2026-05-07 11:08 55.88180 111.44183 34010 ft 434 kts 282°
2026-05-07 11:08 55.89136 111.33579 34010 ft 433 kts 282°
2026-05-07 11:09 55.90082 111.22986 34019 ft 433 kts 282°
2026-05-07 11:09 55.91016 111.12391 34020 ft 433 kts 282°
2026-05-07 11:10 55.91934 111.01787 34023 ft 433 kts 282°
2026-05-07 11:10 55.92841 110.91188 34026 ft 432 kts 282°
2026-05-07 11:11 55.93742 110.80591 34036 ft 432 kts 282°
2026-05-07 11:11 55.94635 110.69992 34036 ft 432 kts 282°
2026-05-07 11:12 55.95518 110.59390 34045 ft 432 kts 281°
2026-05-07 11:12 55.96388 110.48792 34043 ft 431 kts 281°
2026-05-07 11:13 55.97255 110.38195 34049 ft 431 kts 281°
2026-05-07 11:13 55.98122 110.27607 34043 ft 431 kts 281°
2026-05-07 11:14 55.98975 110.17006 34048 ft 431 kts 281°
2026-05-07 11:14 55.99816 110.06394 34043 ft 431 kts 281°
2026-05-07 11:15 56.00647 109.95774 34044 ft 432 kts 281°
2026-05-07 11:15 56.01468 109.85144 34041 ft 431 kts 281°
2026-05-07 11:16 56.02284 109.74531 34038 ft 431 kts 281°
2026-05-07 11:16 56.03091 109.63898 34035 ft 431 kts 281°
2026-05-07 11:17 56.03887 109.53273 34029 ft 431 kts 281°
2026-05-07 11:17 56.04678 109.42655 34023 ft 431 kts 280°
2026-05-07 11:18 56.05457 109.32023 34019 ft 431 kts 280°
2026-05-07 11:18 56.06232 109.21402 34010 ft 431 kts 280°
2026-05-07 11:19 56.06986 109.10771 34001 ft 430 kts 280°
2026-05-07 11:19 56.07734 109.00140 33988 ft 430 kts 280°
2026-05-07 11:20 56.08476 108.89515 33986 ft 430 kts 280°
2026-05-07 11:20 56.09216 108.78876 33968 ft 430 kts 280°
2026-05-07 11:21 56.09939 108.68239 33966 ft 430 kts 279°
2026-05-07 11:21 56.10650 108.57614 33946 ft 430 kts 279°
2026-05-07 11:22 56.11352 108.46974 33942 ft 430 kts 279°
2026-05-07 11:22 56.12056 108.36339 33934 ft 429 kts 279°
2026-05-07 11:23 56.12742 108.25703 33925 ft 430 kts 279°
2026-05-07 11:23 56.13410 108.15047 33916 ft 430 kts 279°
2026-05-07 11:24 56.14083 108.04396 33919 ft 430 kts 279°
2026-05-07 11:24 56.14748 107.93739 33919 ft 430 kts 279°
2026-05-07 11:25 56.15397 107.83071 33909 ft 430 kts 279°
2026-05-07 11:25 56.16033 107.72412 33915 ft 430 kts 279°
2026-05-07 11:26 56.16666 107.61739 33902 ft 430 kts 278°
2026-05-07 11:26 56.17288 107.51079 33908 ft 430 kts 278°
2026-05-07 11:27 56.17897 107.40414 33901 ft 429 kts 278°
2026-05-07 11:27 56.18201 107.35085 33772 ft 428 kts 278°
2026-05-07 11:27 56.18502 107.29769 33916 ft 429 kts 278°
2026-05-07 11:28 56.19096 107.19095 33928 ft 429 kts 278°
2026-05-07 11:28 56.19681 107.08449 33934 ft 428 kts 278°
2026-05-07 11:29 56.20267 106.97826 33926 ft 427 kts 278°
2026-05-07 11:29 56.20839 106.87214 33920 ft 426 kts 277°
2026-05-07 11:30 56.21393 106.76611 33911 ft 426 kts 277°
2026-05-07 11:30 56.21937 106.66024 33910 ft 426 kts 277°
2026-05-07 11:31 56.22471 106.55430 33899 ft 425 kts 277°
2026-05-07 11:31 56.22999 106.44846 33899 ft 425 kts 277°
2026-05-07 11:32 56.23774 106.28961 33889 ft 425 kts 277°
2026-05-07 11:33 56.24275 106.18367 33888 ft 425 kts 277°
2026-05-07 11:33 56.24771 106.07773 33887 ft 425 kts 277°
2026-05-07 11:34 56.25263 105.97163 33889 ft 425 kts 276°
2026-05-07 11:34 56.25741 105.86564 33885 ft 425 kts 276°
2026-05-07 11:35 56.26206 105.75964 33884 ft 425 kts 276°
2026-05-07 11:35 56.26655 105.65367 33887 ft 425 kts 276°
2026-05-07 11:36 56.27099 105.54775 33887 ft 424 kts 276°
2026-05-07 11:36 56.27541 105.44190 33890 ft 424 kts 276°
2026-05-07 11:37 56.27978 105.33617 33888 ft 423 kts 276°
2026-05-07 11:37 56.28334 105.24830 33894 ft 423 kts 276°
2026-05-07 11:38 56.28752 105.14278 33891 ft 423 kts 276°
2026-05-07 11:38 56.29157 105.03729 33893 ft 422 kts 276°
2026-05-07 11:39 56.29540 104.93183 33898 ft 421 kts 275°
2026-05-07 11:39 56.29921 104.82666 33898 ft 421 kts 275°
2026-05-07 11:40 56.30295 104.72159 33895 ft 420 kts 275°
2026-05-07 11:40 56.30664 104.61668 33891 ft 420 kts 275°
2026-05-07 11:41 56.31027 104.51179 33897 ft 419 kts 275°
2026-05-07 11:41 56.31379 104.40710 33893 ft 419 kts 275°
2026-05-07 11:42 56.31720 104.30246 33895 ft 418 kts 275°
2026-05-07 11:42 56.32040 104.19782 33899 ft 418 kts 274°
2026-05-07 11:43 56.32356 104.09336 33897 ft 417 kts 274°
2026-05-07 11:43 56.32653 103.98894 33899 ft 417 kts 274°
2026-05-07 11:44 56.32934 103.88453 33898 ft 417 kts 274°
2026-05-07 11:44 56.33221 103.78027 33902 ft 416 kts 274°
2026-05-07 11:45 56.33495 103.67608 33898 ft 416 kts 273°
2026-05-07 11:45 56.33748 103.57188 33907 ft 416 kts 273°
2026-05-07 11:46 56.33991 103.46770 33910 ft 416 kts 273°
2026-05-07 11:46 56.34246 103.36368 33907 ft 416 kts 273°
2026-05-07 11:47 56.34507 103.25959 33909 ft 415 kts 273°
2026-05-07 11:47 56.34752 103.15556 33912 ft 415 kts 272°
2026-05-07 11:48 56.34983 103.05147 33916 ft 415 kts 272°
2026-05-07 11:48 56.35206 102.94748 33915 ft 415 kts 272°
2026-05-07 11:49 56.35417 102.84351 33916 ft 415 kts 272°
2026-05-07 11:49 56.35625 102.73946 33919 ft 415 kts 272°
2026-05-07 11:50 56.35827 102.63545 33917 ft 415 kts 272°
2026-05-07 11:50 56.36012 102.53136 33919 ft 415 kts 271°
2026-05-07 11:51 56.36186 102.42725 33918 ft 416 kts 271°
2026-05-07 11:51 56.36357 102.32302 33918 ft 416 kts 271°
2026-05-07 11:52 56.36523 102.21883 33915 ft 416 kts 271°
2026-05-07 11:52 56.36677 102.11445 33909 ft 416 kts 271°
2026-05-07 11:53 56.36821 102.01009 33905 ft 417 kts 271°
2026-05-07 11:53 56.36954 101.90562 33909 ft 417 kts 271°
2026-05-07 11:54 56.37071 101.80104 33905 ft 417 kts 270°
2026-05-07 11:54 56.37136 101.69636 33904 ft 417 kts 266°
2026-05-07 11:55 56.36182 101.59328 33903 ft 417 kts 258°
2026-05-07 11:55 56.35029 101.49056 33900 ft 418 kts 258°
2026-05-07 11:56 56.33875 101.38789 33899 ft 418 kts 258°
2026-05-07 11:56 56.32713 101.28506 33899 ft 419 kts 258°
2026-05-07 11:57 56.31539 101.18222 33901 ft 420 kts 258°
2026-05-07 11:57 56.30350 101.07923 33897 ft 420 kts 258°
2026-05-07 11:58 56.29142 100.97630 33896 ft 420 kts 258°
2026-05-07 11:58 56.27937 100.87317 33897 ft 421 kts 258°
2026-05-07 11:59 56.26728 100.77006 33898 ft 422 kts 258°
2026-05-07 11:59 56.25503 100.66687 33898 ft 422 kts 258°
2026-05-07 12:00 56.24263 100.56366 33902 ft 423 kts 258°
2026-05-07 12:00 56.23009 100.46038 33898 ft 423 kts 258°
2026-05-07 12:01 56.21753 100.35710 33900 ft 423 kts 258°
2026-05-07 12:01 56.20487 100.25368 33905 ft 424 kts 258°
2026-05-07 12:02 56.19215 100.15016 33905 ft 424 kts 257°
2026-05-07 12:02 56.17932 100.04680 33908 ft 425 kts 257°
2026-05-07 12:03 56.16636 99.94327 33914 ft 425 kts 257°
2026-05-07 12:03 56.15337 99.83972 33911 ft 426 kts 257°
2026-05-07 12:04 56.14030 99.73618 33909 ft 426 kts 257°
2026-05-07 12:04 56.12709 99.63256 33915 ft 426 kts 257°
2026-05-07 12:05 56.11370 99.52896 33923 ft 427 kts 257°
2026-05-07 12:05 56.10020 99.42532 33923 ft 427 kts 257°
2026-05-07 12:06 56.08662 99.32167 33927 ft 427 kts 259°
2026-05-07 12:06 56.08118 99.21591 33929 ft 427 kts 267°
2026-05-07 12:07 56.07780 99.10960 33929 ft 428 kts 266°
2026-05-07 12:07 56.07415 99.00323 33931 ft 428 kts 266°
2026-05-07 12:08 56.07038 98.89678 33932 ft 429 kts 266°
2026-05-07 12:08 56.06658 98.79034 33937 ft 429 kts 266°
2026-05-07 12:09 56.06277 98.68372 33944 ft 429 kts 266°
2026-05-07 12:09 56.05892 98.57716 33948 ft 430 kts 266°
2026-05-07 12:10 56.05497 98.47041 33933 ft 431 kts 266°
2026-05-07 12:10 56.05079 98.36266 33963 ft 439 kts 266°
2026-05-07 12:11 56.04651 98.25284 33965 ft 444 kts 266°
2026-05-07 12:11 56.04203 98.14266 33970 ft 445 kts 266°
2026-05-07 12:12 56.03736 98.03238 33970 ft 445 kts 266°
2026-05-07 12:12 56.03262 97.92198 33976 ft 445 kts 266°
2026-05-07 12:13 56.02773 97.81156 33977 ft 445 kts 266°
2026-05-07 12:13 56.02267 97.70126 33977 ft 445 kts 266°
2026-05-07 12:14 56.01756 97.59092 33975 ft 446 kts 266°
2026-05-07 12:14 56.01236 97.48058 33977 ft 446 kts 266°
2026-05-07 12:15 56.00699 97.37015 33978 ft 446 kts 265°
2026-05-07 12:15 56.00149 97.25969 33982 ft 446 kts 265°
2026-05-07 12:16 55.99598 97.14925 33984 ft 447 kts 265°
2026-05-07 12:16 55.99031 97.03876 33985 ft 447 kts 265°
2026-05-07 12:17 55.98454 96.92822 33983 ft 447 kts 265°
2026-05-07 12:17 55.97973 96.83638 33987 ft 447 kts 265°
2026-05-07 12:18 55.97372 96.72574 33988 ft 448 kts 265°
2026-05-07 12:18 55.96766 96.61515 33986 ft 448 kts 265°
2026-05-07 12:19 55.96157 96.50454 33991 ft 448 kts 265°
2026-05-07 12:19 55.95537 96.39375 33993 ft 449 kts 265°
2026-05-07 12:20 55.94906 96.28302 33996 ft 449 kts 265°
2026-05-07 12:20 55.94258 96.17219 33994 ft 449 kts 265°
2026-05-07 12:21 55.93591 96.06137 33998 ft 449 kts 265°
2026-05-07 12:21 55.92923 95.95051 34000 ft 450 kts 265°
2026-05-07 12:22 55.92252 95.83967 33999 ft 450 kts 265°
2026-05-07 12:22 55.91566 95.72875 33997 ft 450 kts 265°
2026-05-07 12:23 55.90869 95.61781 34000 ft 450 kts 265°
2026-05-07 12:23 55.90151 95.50693 34007 ft 450 kts 265°
2026-05-07 12:24 55.89432 95.39605 34003 ft 451 kts 265°
2026-05-07 12:24 55.88704 95.28518 34016 ft 451 kts 265°
2026-05-07 12:25 55.87968 95.17430 34023 ft 451 kts 265°
2026-05-07 12:25 55.87217 95.06348 34009 ft 451 kts 265°
2026-05-07 12:26 55.86463 94.95275 34025 ft 451 kts 265°
2026-05-07 12:26 55.85700 94.84200 34014 ft 451 kts 265°
2026-05-07 12:27 55.84919 94.73137 34023 ft 450 kts 265°
2026-05-07 12:27 55.84130 94.62079 34017 ft 450 kts 265°
2026-05-07 12:28 55.83334 94.51029 34028 ft 450 kts 265°
2026-05-07 12:28 55.82529 94.39999 34018 ft 450 kts 265°
2026-05-07 12:29 55.81713 94.28975 34024 ft 449 kts 265°
2026-05-07 12:29 55.80870 94.17967 34029 ft 449 kts 264°
2026-05-07 12:30 55.80003 94.06977 34030 ft 449 kts 264°
2026-05-07 12:30 55.79134 93.95999 34027 ft 449 kts 264°
2026-05-07 12:31 55.78253 93.85020 34032 ft 448 kts 264°
2026-05-07 12:31 55.77372 93.74062 34032 ft 448 kts 264°
2026-05-07 12:32 55.76482 93.63115 34032 ft 448 kts 264°
2026-05-07 12:32 55.75572 93.52175 34032 ft 447 kts 264°
2026-05-07 12:33 55.74188 93.35808 34030 ft 447 kts 264°
2026-05-07 12:33 55.73208 93.24919 34032 ft 447 kts 263°
2026-05-07 12:34 55.72184 93.14042 34034 ft 447 kts 263°
2026-05-07 12:34 55.71166 93.03193 34034 ft 446 kts 263°
2026-05-07 12:35 55.70148 92.92343 34038 ft 446 kts 263°
2026-05-07 12:35 55.69130 92.81509 34038 ft 445 kts 263°
2026-05-07 12:36 55.68108 92.70763 34037 ft 445 kts 263°
2026-05-07 12:36 55.67054 92.59902 34035 ft 444 kts 263°
2026-05-07 12:37 55.65996 92.49121 34045 ft 444 kts 263°
2026-05-07 12:37 55.64935 92.38367 34050 ft 443 kts 263°
2026-05-07 12:38 55.63881 92.27685 34044 ft 443 kts 263°
2026-05-07 12:38 55.62797 92.16889 34034 ft 442 kts 263°
2026-05-07 12:39 55.61719 92.06178 34045 ft 442 kts 263°
2026-05-07 12:39 55.60639 91.95551 34042 ft 442 kts 263°
2026-05-07 12:40 55.59533 91.84871 34043 ft 441 kts 263°
2026-05-07 12:40 55.58428 91.74200 34044 ft 441 kts 263°
2026-05-07 12:41 55.57307 91.63552 34049 ft 441 kts 263°
2026-05-07 12:41 55.56182 91.52917 34046 ft 440 kts 263°
2026-05-07 12:42 55.55048 91.42295 34048 ft 440 kts 263°
2026-05-07 12:42 55.53911 91.31687 34049 ft 439 kts 263°
2026-05-07 12:43 55.52767 91.21092 34048 ft 439 kts 263°
2026-05-07 12:43 55.51705 91.10499 34048 ft 436 kts 269°
2026-05-07 12:44 55.51380 90.99839 34052 ft 435 kts 270°
2026-05-07 12:44 55.51052 90.89178 34047 ft 435 kts 270°
2026-05-07 12:45 55.50714 90.78527 34047 ft 435 kts 270°
2026-05-07 12:45 55.50366 90.67864 34041 ft 435 kts 270°
2026-05-07 12:46 55.50012 90.57204 34045 ft 435 kts 270°
2026-05-07 12:46 55.49642 90.46549 34046 ft 435 kts 270°
2026-05-07 12:47 55.49265 90.35895 34048 ft 435 kts 270°
2026-05-07 12:47 55.48887 90.25243 34045 ft 435 kts 270°
2026-05-07 12:48 55.48498 90.14594 34046 ft 435 kts 270°
2026-05-07 12:48 55.48101 90.03955 34045 ft 435 kts 270°
2026-05-07 12:49 55.47678 89.93313 34049 ft 435 kts 269°
2026-05-07 12:49 55.47255 89.82676 34051 ft 435 kts 270°
2026-05-07 12:50 55.46840 89.72035 34049 ft 435 kts 270°
2026-05-07 12:50 55.46406 89.61403 34044 ft 435 kts 269°
2026-05-07 12:51 55.45957 89.50767 34045 ft 435 kts 269°
2026-05-07 12:51 55.45493 89.40145 34052 ft 435 kts 269°
2026-05-07 12:52 55.45027 89.29517 34051 ft 435 kts 269°
2026-05-07 12:52 55.44550 89.18886 34051 ft 435 kts 269°
2026-05-07 12:53 55.44064 89.08258 34060 ft 435 kts 269°
2026-05-07 12:53 55.43567 88.97630 34058 ft 435 kts 269°
2026-05-07 12:54 55.43067 88.87005 34070 ft 435 kts 269°
2026-05-07 12:54 55.42568 88.76392 34069 ft 435 kts 269°
2026-05-07 12:55 55.42055 88.65795 34069 ft 434 kts 269°
2026-05-07 12:55 55.41543 88.55205 34067 ft 434 kts 269°
2026-05-07 12:56 55.41028 88.44625 34067 ft 434 kts 269°
2026-05-07 12:56 55.40488 88.34062 34068 ft 433 kts 269°
2026-05-07 12:57 55.39931 88.23502 34070 ft 433 kts 269°
2026-05-07 12:57 55.39371 88.12988 34066 ft 432 kts 269°
2026-05-07 12:58 55.38816 88.02475 34067 ft 431 kts 269°
2026-05-07 12:58 55.38261 87.91964 34061 ft 431 kts 269°
2026-05-07 12:59 55.37782 87.83251 34065 ft 431 kts 269°
2026-05-07 12:59 55.37190 87.72763 34065 ft 431 kts 268°
2026-05-07 13:00 55.36595 87.62290 34068 ft 430 kts 268°
2026-05-07 13:00 55.36000 87.51830 34074 ft 430 kts 268°
2026-05-07 13:01 55.35405 87.41393 34076 ft 429 kts 268°
2026-05-07 13:01 55.34785 87.30962 34074 ft 429 kts 268°
2026-05-07 13:02 55.34160 87.20555 34072 ft 428 kts 268°
2026-05-07 13:02 55.33530 87.10167 34071 ft 428 kts 268°
2026-05-07 13:03 55.32886 86.99788 34068 ft 427 kts 268°
2026-05-07 13:03 55.32243 86.89435 34061 ft 426 kts 268°
2026-05-07 13:04 55.31595 86.79100 34062 ft 426 kts 268°
2026-05-07 13:04 55.30930 86.68780 34071 ft 425 kts 267°
2026-05-07 13:05 55.30259 86.58478 34062 ft 425 kts 267°
2026-05-07 13:05 55.29589 86.48184 34061 ft 425 kts 267°
2026-05-07 13:06 55.28910 86.37893 34074 ft 424 kts 267°
2026-05-07 13:06 55.28210 86.27616 34067 ft 424 kts 267°
2026-05-07 13:07 55.27498 86.17364 34071 ft 423 kts 266°
2026-05-07 13:07 55.26811 86.07170 34048 ft 414 kts 268°
2026-05-07 13:08 55.26331 85.97240 33730 ft 406 kts 269°
2026-05-07 13:08 55.26134 85.92300 33266 ft 406 kts 269°
2026-05-07 13:08 55.25929 85.87370 32753 ft 406 kts 269°
2026-05-07 13:09 55.25707 85.82420 32255 ft 408 kts 269°
2026-05-07 13:09 55.25471 85.77474 31757 ft 409 kts 269°
2026-05-07 13:09 55.25224 85.72486 31274 ft 411 kts 268°
2026-05-07 13:09 55.24968 85.67491 30797 ft 412 kts 268°
2026-05-07 13:10 55.24705 85.62472 30332 ft 414 kts 268°
2026-05-07 13:10 55.24443 85.57437 29825 ft 416 kts 268°
2026-05-07 13:10 55.24183 85.52380 29280 ft 418 kts 268°
2026-05-07 13:10 55.23920 85.47287 28742 ft 420 kts 268°
2026-05-07 13:11 55.23654 85.42180 28222 ft 421 kts 267°
2026-05-07 13:11 55.23383 85.37068 27716 ft 420 kts 267°
2026-05-07 13:11 55.23112 85.31995 27202 ft 418 kts 267°
2026-05-07 13:11 55.22841 85.26940 26717 ft 416 kts 266°
2026-05-07 13:12 55.22570 85.21904 26233 ft 414 kts 266°
2026-05-07 13:12 55.22299 85.16894 25758 ft 412 kts 266°
2026-05-07 13:12 55.22026 85.11905 25289 ft 411 kts 266°
2026-05-07 13:12 55.21754 85.06935 24832 ft 409 kts 266°
2026-05-07 13:13 55.21482 85.01987 24382 ft 408 kts 265°
2026-05-07 13:13 55.21209 84.97051 23932 ft 407 kts 265°
2026-05-07 13:13 55.20935 84.92133 23468 ft 405 kts 265°
2026-05-07 13:13 55.20660 84.87233 22946 ft 403 kts 265°
2026-05-07 13:14 55.20376 84.82371 22440 ft 400 kts 265°
2026-05-07 13:14 55.20090 84.77541 21929 ft 397 kts 265°
2026-05-07 13:14 55.19807 84.72747 21433 ft 395 kts 264°
2026-05-07 13:14 55.19293 84.68051 20944 ft 392 kts 255°
2026-05-07 13:15 55.18440 84.63523 20488 ft 390 kts 252°
2026-05-07 13:15 55.17558 84.59047 20039 ft 388 kts 252°
2026-05-07 13:15 55.16681 84.54603 19602 ft 386 kts 252°
2026-05-07 13:15 55.15809 84.50185 19168 ft 383 kts 252°
2026-05-07 13:16 55.14943 84.45799 18740 ft 379 kts 252°
2026-05-07 13:16 55.14091 84.41516 18355 ft 367 kts 251°
2026-05-07 13:16 55.13269 84.37401 17983 ft 354 kts 252°
2026-05-07 13:16 55.12467 84.33372 17610 ft 346 kts 252°
2026-05-07 13:17 55.11688 84.29455 17241 ft 338 kts 252°
2026-05-07 13:17 55.10928 84.25621 16877 ft 331 kts 252°
2026-05-07 13:17 55.10181 84.21858 16516 ft 324 kts 252°
2026-05-07 13:17 55.09448 84.18176 16160 ft 318 kts 252°
2026-05-07 13:18 55.08727 84.14565 15805 ft 312 kts 252°
2026-05-07 13:18 55.08013 84.11020 15463 ft 307 kts 252°
2026-05-07 13:18 55.07308 84.07537 15138 ft 301 kts 252°
2026-05-07 13:18 55.06614 84.04110 14826 ft 299 kts 252°
2026-05-07 13:19 55.05922 84.00704 14509 ft 297 kts 252°
2026-05-07 13:19 55.05233 83.97311 14204 ft 296 kts 252°
2026-05-07 13:19 55.04546 83.93940 13884 ft 295 kts 252°
2026-05-07 13:19 55.03863 83.90580 13555 ft 293 kts 252°
2026-05-07 13:20 55.03182 83.87228 13215 ft 292 kts 252°
2026-05-07 13:20 55.02504 83.83893 12876 ft 291 kts 252°
2026-05-07 13:20 55.01826 83.80575 12547 ft 290 kts 251°
2026-05-07 13:20 55.01149 83.77270 12210 ft 289 kts 251°
2026-05-07 13:21 55.00470 83.73986 11876 ft 288 kts 251°
2026-05-07 13:21 54.99788 83.70713 11555 ft 287 kts 251°
2026-05-07 13:21 54.99108 83.67459 11233 ft 286 kts 251°
2026-05-07 13:21 54.98428 83.64212 10917 ft 284 kts 251°
2026-05-07 13:22 54.97752 83.60988 10648 ft 284 kts 251°
2026-05-07 13:22 54.97075 83.57768 10387 ft 283 kts 251°
2026-05-07 13:22 54.96401 83.54556 10127 ft 282 kts 251°
2026-05-07 13:22 54.95728 83.51354 9869 ft 281 kts 251°
2026-05-07 13:23 54.95060 83.48163 9563 ft 280 kts 251°
2026-05-07 13:23 54.94404 83.45032 9280 ft 278 kts 250°
2026-05-07 13:23 54.93733 83.41839 9003 ft 277 kts 250°
2026-05-07 13:23 54.93081 83.38742 8714 ft 275 kts 250°
2026-05-07 13:24 54.92425 83.35627 8437 ft 274 kts 250°
2026-05-07 13:24 54.91771 83.32535 8179 ft 272 kts 250°
2026-05-07 13:24 54.91109 83.29415 7950 ft 271 kts 250°
2026-05-07 13:24 54.90467 83.26391 7727 ft 270 kts 250°
2026-05-07 13:25 54.89819 83.23337 7500 ft 269 kts 250°
2026-05-07 13:25 54.89174 83.20300 7295 ft 268 kts 249°
2026-05-07 13:25 54.88529 83.17274 7105 ft 266 kts 249°
2026-05-07 13:25 54.87886 83.14257 6983 ft 266 kts 249°
2026-05-07 13:26 54.87246 83.11249 6837 ft 266 kts 250°
2026-05-07 13:26 54.86779 83.08151 6666 ft 265 kts 259°
2026-05-07 13:26 54.86623 83.04966 6498 ft 265 kts 269°
2026-05-07 13:26 54.86698 83.01775 6327 ft 265 kts 271°
2026-05-07 13:27 54.86781 82.98585 6146 ft 264 kts 271°
2026-05-07 13:27 54.86859 82.95404 5963 ft 263 kts 271°
2026-05-07 13:27 54.86933 82.92234 5787 ft 263 kts 271°
2026-05-07 13:27 54.87008 82.89071 5626 ft 262 kts 271°
2026-05-07 13:28 54.87081 82.85946 5469 ft 253 kts 271°
2026-05-07 13:28 54.87153 82.82959 5317 ft 243 kts 271°
2026-05-07 13:28 54.87221 82.80054 5167 ft 240 kts 271°
2026-05-07 13:28 54.87285 82.77169 5019 ft 239 kts 270°
2026-05-07 13:29 54.87346 82.74291 4871 ft 238 kts 270°
2026-05-07 13:29 54.87406 82.71427 4711 ft 236 kts 270°
2026-05-07 13:29 54.87465 82.68633 4559 ft 228 kts 270°
2026-05-07 13:29 54.87524 82.65891 4409 ft 227 kts 270°
2026-05-07 13:30 54.87582 82.63150 4258 ft 227 kts 270°
2026-05-07 13:30 54.87640 82.60413 4106 ft 227 kts 271°
2026-05-07 13:30 54.87698 82.57677 3955 ft 227 kts 271°
2026-05-07 13:30 54.87755 82.54946 3831 ft 226 kts 271°
2026-05-07 13:31 54.87812 82.52213 3706 ft 226 kts 271°
2026-05-07 13:31 54.87865 82.49480 3573 ft 227 kts 270°
2026-05-07 13:31 54.87917 82.46745 3457 ft 227 kts 270°
2026-05-07 13:31 54.87968 82.44010 3335 ft 227 kts 270°
2026-05-07 13:32 54.88022 82.41272 3206 ft 226 kts 271°
2026-05-07 13:32 54.88079 82.38542 3076 ft 226 kts 271°
2026-05-07 13:32 54.88429 82.35900 2998 ft 223 kts 294°
2026-05-07 13:32 54.89320 82.33783 2924 ft 217 kts 317°
2026-05-07 13:33 54.90598 82.32455 2791 ft 213 kts 340°
2026-05-07 13:33 54.92029 82.31961 2695 ft 209 kts 350°
2026-05-07 13:33 54.93460 82.31570 2552 ft 205 kts 349°
2026-05-07 13:33 54.94850 82.31177 2436 ft 200 kts 349°
2026-05-07 13:34 54.96225 82.31167 2309 ft 199 kts 12°
2026-05-07 13:34 54.98328 82.34239 2092 ft 207 kts 70°
2026-05-07 13:34 54.98619 82.36604 2005 ft 190 kts 83°
2026-05-07 13:35 54.98813 82.38707 2017 ft 165 kts 83°
2026-05-07 13:35 54.98991 82.40616 2009 ft 155 kts 82°
2026-05-07 13:35 54.99161 82.42455 2004 ft 153 kts 83°
2026-05-07 13:35 54.99330 82.44271 2009 ft 151 kts 83°
2026-05-07 13:36 54.99497 82.46071 2008 ft 151 kts 82°
2026-05-07 13:36 54.99664 82.47868 1957 ft 151 kts 83°
2026-05-07 13:36 54.99830 82.49667 1812 ft 150 kts 83°
2026-05-07 13:36 54.99995 82.51450 1640 ft 149 kts 82°
2026-05-07 13:37 55.00159 82.53226 1444 ft 148 kts 82°
2026-05-07 13:37 55.00322 82.54987 1254 ft 147 kts 83°
2026-05-07 13:37 55.00482 82.56726 1048 ft 144 kts 83°
2026-05-07 13:37 55.00639 82.58436 851 ft 142 kts 84°
2026-05-07 13:38 55.00796 82.60126 673 ft 139 kts 83°
2026-05-07 13:38 55.00953 82.61806 483 ft 140 kts 83°
2026-05-07 13:38 55.01105 82.63452 375 ft 133 kts 82°
2026-05-07 13:38 55.01219 82.64815 373 ft 87 kts 81°
2026-05-07 13:39 55.01294 82.65602 373 ft 57 kts 81°
2026-05-07 13:39 55.01340 82.66162 372 ft 43 kts 81°
2026-05-07 13:39 55.01370 82.66460 375 ft 23 kts 81°
2026-05-07 13:39 55.01341 82.66596 374 ft 12 kts 158°
2026-05-07 13:40 55.01270 82.66619 373 ft 8 kts 171°
2026-05-07 13:40 55.01209 82.66636 373 ft 9 kts 171°
2026-05-07 13:40 55.01200 82.66638 373 ft 2 kts 171°
2026-05-07 13:40 55.01196 82.66639 373 ft 1 kts 171°
2026-05-07 13:41 55.01179 82.66644 373 ft 3 kts 171°
2026-05-07 13:41 55.01150 82.66651 373 ft 5 kts 172°
2026-05-07 13:41 55.01111 82.66655 373 ft 6 kts 182°
2026-05-07 13:41 55.01076 82.66606 373 ft 7 kts 237°
2026-05-07 13:42 55.01060 82.66550 373 ft 8 kts 246°
2026-05-07 13:42 55.01035 82.66467 373 ft 6 kts 213°
2026-05-07 13:42 55.00999 82.66462 373 ft 2 kts 171°
2026-05-07 13:42 55.00981 82.66466 373 ft 3 kts 169°
2026-05-07 13:43 55.00974 82.66468 373 ft 2 kts 168°
2026-05-07 13:43 55.00960 82.66473 373 ft 0 kts 170°
2026-05-07 13:43 55.00959 82.66473 373 ft 0 kts 170°
2026-05-07 13:58 55.00960 82.66473 373 ft 0 kts 170°